FENGYUN 1C DEB, 35233

Orbit data source: Space-Track

FENGYUN 1C DEB, 35233 is space debris in SSO originally from a launch on Mon, 10 May 1999 UTC launched from the Taiyaun Space Center, China (TSC). Fengyun 1C debris stems from the Chinese weather satellite Fengyun-1C, which was intentionally destroyed by a Chinese anti-satellite missile in 2007. This event dramatically increased the amount of space debris, with thousands of trackable fragments posing hazards to satellites and human spaceflight. The Fengyun 1C debris cloud has become a focal point in discussions about space sustainability and the need for international regulations to prevent the creation of new debris.

Loading next visibility...
Identifier
35233, 1999-025DQR
Orbit
SSO
Country
Flag of CNCN / PRC
Related business
Manufacturer
Unknown
Mission
Spacecraft
Bus & Motor
Unknown
Mass
Unknown
Launch date (UTC)
1999-05-10 (26 years ago)
Launch vehicle
Unknown
Launch site
Taiyaun Space Center, China (TSC)
Object type
Payload
Rocket body
Debris
Shape & HBR
Unknown shape, 0.1 m
Radar Cross Section
Small (<0.1 m²)

Expand to show TLE details & history
Last TLE update: 3 days ago

TLE from 3 days ago
0 FENGYUN 1C DEB
1 35233U 99025DQR 25289.25111581  .00007250  00000-0  22480-2 0  9993
2 35233  98.7694  26.8674 0042307  76.3154 311.5470 14.40907872903483
Epoch: 2025-10-16T06:01Z
TLE epoch observation values (Epoch: 2025-10-16T06:01:36.405Z)
Latitude
27.19045°
Longitude
-93.06871°
Altitude
738.891 km
Speed
7.498 km/s
True Right ascension
01h 29m 23s
True Declination
27° 03' 02"
Sunlit
Object was in full shadow at epoch
Visualization orbit readout
Latitude
Unknown
Longitude
Unknown
Altitude
Unknown
Speed
Unknown
Apparent Right ascension
Unknown
Apparent Declination
Unknown
Sunlit
N/A
Visualization observer readout
Local Sidereal Time
21:16:50
Azimuth
Unknown
Elevation
Unknown
Doppler factor
Unknown
Orbital elements
Apogee altitude
782.802 km
Perigee altitude
722.466 km
Semi-major axis
7,130.771 km
Eccentricity
0.00423
Inclination
98.7694°
RAAN
26.8674°
Arg. of periapsis
76.3154°
True anomaly
311.18289°
Mean anomaly
311.547°
Eccentric anomaly
311.36507°
Mean motion
3.60445 °/min
Orbital period
99.88 mins
BSTAR
0.002248
Loading maneuver chart data...
Computing Atmospheric mass density...

Documentation

Showing up to 5 results
|